Tracking 33404 objects as of 6-Mar-2026
HD Live streaming from Space Station
objects crossing your sky now

OTTER PUP 2

Track OTTER PUP 2 now!
10-day predictions
OTTER PUP 2 is classified as:


NORAD ID: 64537
Int'l Code: 2025-135K
Perigee: 504.6 km
Apogee: 508.7 km
Inclination: 97.5 °
Period: 94.6 minutes
Semi major axis: 6877 km
RCS: Unknown
Launch date: June 23, 2025
Source: United States (US)
Launch site: AIR FORCE WESTERN TEST RANGE (AFWTR)

Uplink (MHz):
Downlink (MHz): 161.863/2221.500
Beacon (MHz):
Mode: FM
Call sign:
Status: Unknown

Your satellite tracking list
Your tracking list is empty




NASA's NSSDC Master Catalog

Two Line Element Set (TLE):
1 64537U 25135K   26064.74923669  .00016766  00000-0  73413-3 0  9992
2 64537  97.4584 180.8066 0003030 140.3374 219.8085 15.22098435 39139
Source of the keplerian elements: AFSPC